,,Stat6,,Stat2,,Stat8,,Stat9,,Stat10,,Wind1,,Wind1,
time,status,PA1M_AVG,status,PR1M_SUM,status,RH1M_AVG,status,SR1M_AVG,status,TA1M_AVG,status,W1dAve1m,status,W1sAve1m,
2008-10-22, 00:00:00,VALID,916.706,VALID,0,VALID,100,VALID,-0.0509425,VALID,20.0076,VALID,51,VALID,0,
2008-10-22, 00:01:00,VALID,916.697,VALID,0.2,VALID,100,VALID,-0.0169808,VALID,20.0173,VALID,56,VALID,0,
2008-10-22, 00:02:00,VALID,916.666,VALID,0,VALID,100,VALID,-0.0509425,VALID,20.0013,VALID,55,VALID,0,
2008-10-22, 00:03:00,VALID,916.637,VALID,0,VALID,100,VALID,-0.0339617,VALID,19.9948,VALID,55,VALID,0,
2008-10-22, 00:04:00,VALID,916.618,VALID,0.2,VALID,100,VALID,0,VALID,19.9686,VALID,53,VALID,0,
2008-10-22, 00:05:00,VALID,916.618,VALID,0,VALID,100,VALID,-0.0169808,VALID,19.9559,VALID,51,VALID,0,
2008-10-22, 00:06:00,VALID,916.618,VALID,0,VALID,100,VALID,-0.0169808,VALID,19.9491,VALID,50,VALID,0,
2008-10-22, 00:07:00,VALID,916.633,VALID,0,VALID,100,VALID,0,VALID,19.9654,VALID,49,VALID,0,
2008-10-22, 00:08:00,VALID,916.621,VALID,0,VALID,100,VALID,-0.0169808,VALID,19.9621,VALID,49,VALID,0,
2008-10-22, 00:09:00,VALID,916.608,VALID,0,VALID,100,VALID,-0.0169808,VALID,19.9327,VALID,49,VALID,0,
2008-10-22, 00:10:00,VALID,916.592,VALID,0,VALID,100,VALID,0.0169808,VALID,19.9234,VALID,49,VALID,0,
2008-10-22, 00:11:00,VALID,916.577,VALID,0,VALID,100,VALID,-0.0169808,VALID,19.8942,VALID,49,VALID,0,
2008-10-22, 00:12:00,VALID,916.569,VALID,0,VALID,100,VALID,-0.0339617,VALID,19.868,VALID,49,VALID,0,
2008-10-22, 00:13:00,VALID,916.538,VALID,0,VALID,100,VALID,0,VALID,19.8615,VALID,49,VALID,0,
2008-10-22, 00:14:00,VALID,916.527,VALID,0,VALID,100,VALID,-0.0169808,VALID,19.8685,VALID,49,VALID,0,
2008-10-22, 00:15:00,VALID,916.519,VALID,0.2,VALID,100,VALID,-0.0339617,VALID,19.8683,VALID,49,VALID,0,
2008-10-22, 00:16:00,VALID,916.506,VALID,0,VALID,100,VALID,0,VALID,19.8618,VALID,49,VALID,0,
2008-10-22, 00:17:00,VALID,916.49,VALID,0,VALID,100,VALID,0,VALID,19.8713,VALID,49,VALID,0,
2008-10-22, 00:18:00,VALID,916.476,VALID,0,VALID,100,VALID,-0.0339617,VALID,19.8845,VALID,49,VALID,0,
2008-10-22, 00:19:00,VALID,916.454,VALID,0,VALID,100,VALID,-0.0169808,VALID,19.9037,VALID,49,VALID,0,
2008-10-22, 00:20:00,VALID,916.427,VALID,0,VALID,100,VALID,0,VALID,19.8907,VALID,49,VALID,0,
2008-10-22, 00:21:00,VALID,916.403,VALID,0,VALID,100,VALID,-0.0169808,VALID,19.8748,VALID,49,VALID,0,
2008-10-22, 00:22:00,VALID,916.369,VALID,0,VALID,100,VALID,-0.0169808,VALID,19.8748,VALID,49,VALID,0,
2008-10-22, 00:23:00,VALID,916.357,VALID,0,VALID,100,VALID,-0.0169808,VALID,19.8748,VALID,49,VALID,0,
2008-10-22, 00:24:00,VALID,916.339,VALID,0,VALID,100,VALID,0,VALID,19.894,VALID,49,VALID,0,
2008-10-22, 00:25:00,VALID,916.333,VALID,0,VALID,100,VALID,-0.0169808,VALID,19.8972,VALID,49,VALID,0,
2008-10-22, 00:26:00,VALID,916.331,VALID,0,VALID,100,VALID,0,VALID,19.8745,VALID,49,VALID,0,
2008-10-22, 00:27:00,VALID,916.32,VALID,0,VALID,100,VALID,-0.0169808,VALID,19.8688,VALID,49,VALID,0,
2008-10-22, 00:28:00,VALID,916.309,VALID,0,VALID,100,VALID,-0.0339617,VALID,19.8745,VALID,49,VALID,0,
2008-10-22, 00:29:00,VALID,916.302,VALID,0,VALID,100,VALID,-0.0169808,VALID,19.8713,VALID,49,VALID,0,
2008-10-22, 00:30:00,VALID,916.304,VALID,0,VALID,100,VALID,-0.0169808,VALID,19.8583,VALID,49,VALID,0,
2008-10-22, 00:31:00,VALID,916.281,VALID,0,VALID,100,VALID,-0.0679233,VALID,19.8588,VALID,49,VALID,0,
2008-10-22, 00:32:00,VALID,916.264,VALID,0,VALID,100,VALID,-0.0849042,VALID,19.878,VALID,49,VALID,0,
2008-10-22, 00:33:00,VALID,916.243,VALID,0,VALID,100,VALID,0,VALID,19.8615,VALID,49,VALID,0,
2008-10-22, 00:34:00,VALID,916.234,VALID,0,VALID,100,VALID,-0.0509425,VALID,19.8486,VALID,49,VALID,0,
2008-10-22, 00:35:00,VALID,916.24,VALID,0,VALID,100,VALID,-0.0339617,VALID,19.8226,VALID,49,VALID,0,
2008-10-22, 00:36:00,VALID,916.234,VALID,0,VALID,100,VALID,-0.0509425,VALID,19.8396,VALID,49,VALID,0,
2008-10-22, 00:37:00,VALID,916.235,VALID,0,VALID,100,VALID,-0.0169808,VALID,19.8396,VALID,49,VALID,0,
2008-10-22, 00:38:00,VALID,916.261,VALID,0,VALID,100,VALID,-0.0509425,VALID,19.8521,VALID,49,VALID,0,
2008-10-22, 00:39:00,VALID,916.263,VALID,0,VALID,100,VALID,-0.0679233,VALID,19.8328,VALID,49,VALID,0,
2008-10-22, 00:40:00,VALID,916.268,VALID,0,VALID,100,VALID,-0.0679233,VALID,19.8291,VALID,49,VALID,0,
2008-10-22, 00:41:00,VALID,916.275,VALID,0,VALID,100,VALID,-0.0509425,VALID,19.8293,VALID,49,VALID,0,
2008-10-22, 00:42:00,VALID,916.28,VALID,0,VALID,100,VALID,-0.0339617,VALID,19.8296,VALID,49,VALID,0,
2008-10-22, 00:43:00,VALID,916.263,VALID,0,VALID,100,VALID,-0.0339617,VALID,19.8261,VALID,49,VALID,0,
2008-10-22, 00:44:00,VALID,916.247,VALID,0,VALID,100,VALID,-0.0849042,VALID,19.8004,VALID,49,VALID,0,
2008-10-22, 00:45:00,VALID,916.237,VALID,0,VALID,100,VALID,-0.0509425,VALID,19.7709,VALID,49,VALID,0,
2008-10-22, 00:46:00,VALID,916.21,VALID,0,VALID,100,VALID,-0.0679233,VALID,19.7615,VALID,49,VALID,0,
2008-10-22, 00:47:00,VALID,916.187,VALID,0,VALID,100,VALID,-0.0509425,VALID,19.7417,VALID,49,VALID,0,
2008-10-22, 00:48:00,VALID,916.162,VALID,0,VALID,100,VALID,-0.0509425,VALID,19.7422,VALID,49,VALID,0,
2008-10-22, 00:49:00,VALID,916.163,VALID,0,VALID,100,VALID,-0.0339617,VALID,19.7288,VALID,49,VALID,0,
2008-10-22, 00:50:00,VALID,916.158,VALID,0,VALID,100,VALID,-0.0339617,VALID,19.732,VALID,49,VALID,0,
2008-10-22, 00:51:00,VALID,916.15,VALID,0,VALID,100,VALID,-0.0849042,VALID,19.7352,VALID,49,VALID,0,
2008-10-22, 00:52:00,VALID,916.163,VALID,0,VALID,100,VALID,-0.0169808,VALID,19.7155,VALID,49,VALID,0,
2008-10-22, 00:53:00,VALID,916.152,VALID,0,VALID,100,VALID,-0.0339617,VALID,19.716,VALID,49,VALID,0,
2008-10-22, 00:54:00,VALID,916.154,VALID,0,VALID,100,VALID,-0.0169808,VALID,19.7023,VALID,49,VALID,0,
2008-10-22, 00:55:00,VALID,916.149,VALID,0,VALID,100,VALID,0,VALID,19.709,VALID,49,VALID,0,
2008-10-22, 00:56:00,VALID,916.142,VALID,0,VALID,100,VALID,-0.0339617,VALID,19.719,VALID,49,VALID,0,
2008-10-22, 00:57:00,VALID,916.13,VALID,0,VALID,100,VALID,0,VALID,19.709,VALID,49,VALID,0,
2008-10-22, 00:58:00,VALID,916.101,VALID,0,VALID,100,VALID,-0.0169808,VALID,19.7058,VALID,49,VALID,0,
2008-10-22, 00:59:00,VALID,916.087,VALID,0,VALID,100,VALID,-0.0509425,VALID,19.6961,VALID,49,VALID,0,
2008-10-22, 01:00:00,VALID,916.075,VALID,0,VALID,100,VALID,-0.0509425,VALID,19.6933,VALID,49,VALID,0,
2008-10-22, 01:01:00,VALID,916.051,VALID,0,VALID,100,VALID,-0.0679233,VALID,19.6833,VALID,49,VALID,0,
2008-10-22, 01:02:00,VALID,916.047,VALID,0,VALID,100,VALID,-0.0339617,VALID,19.6866,VALID,49,VALID,0,
2008-10-22, 01:03:00,VALID,916.023,VALID,0,VALID,100,VALID,-0.0849042,VALID,19.6998,VALID,49,VALID,0,
2008-10-22, 01:04:00,VALID,916.026,VALID,0,VALID,100,VALID,0,VALID,19.7095,VALID,49,VALID,0,
2008-10-22, 01:05:00,VALID,916.019,VALID,0,VALID,100,VALID,-0.0339617,VALID,19.712,VALID,49,VALID,0,
2008-10-22, 01:06:00,VALID,915.995,VALID,0,VALID,100,VALID,0,VALID,19.7123,VALID,49,VALID,0,
2008-10-22, 01:07:00,VALID,915.987,VALID,0,VALID,100,VALID,-0.0339617,VALID,19.7025,VALID,49,VALID,0,
2008-10-22, 01:08:00,VALID,915.977,VALID,0,VALID,100,VALID,0,VALID,19.6958,VALID,49,VALID,0,
2008-10-22, 01:09:00,VALID,915.959,VALID,0,VALID,100,VALID,-0.0169808,VALID,19.6763,VALID,49,VALID,0,
2008-10-22, 01:10:00,VALID,915.951,VALID,0,VALID,100,VALID,-0.0339617,VALID,19.6838,VALID,49,VALID,0,
2008-10-22, 01:11:00,VALID,915.916,VALID,0,VALID,100,VALID,-0.0169808,VALID,19.6833,VALID,49,VALID,0,
2008-10-22, 01:12:00,VALID,915.888,VALID,0,VALID,100,VALID,-0.0169808,VALID,19.6666,VALID,69,VALID,0,
2008-10-22, 01:13:00,VALID,915.856,VALID,0,VALID,100,VALID,0,VALID,19.6439,VALID,112,VALID,0,
2008-10-22, 01:14:00,VALID,915.813,VALID,0,VALID,100,VALID,-0.0169808,VALID,19.6247,VALID,119,VALID,0,
2008-10-22, 01:15:00,VALID,915.8,VALID,0,VALID,100,VALID,-0.0339617,VALID,19.6214,VALID,129,VALID,0,
2008-10-22, 01:16:00,VALID,915.783,VALID,0,VALID,100,VALID,-0.0169808,VALID,19.6152,VALID,130,VALID,0,
2008-10-22, 01:17:00,VALID,915.764,VALID,0,VALID,100,VALID,-0.0509425,VALID,19.6182,VALID,130,VALID,0,
2008-10-22, 01:18:00,VALID,915.746,VALID,0,VALID,100,VALID,0,VALID,19.6055,VALID,130,VALID,0,
2008-10-22, 01:19:00,VALID,915.716,VALID,0,VALID,100,VALID,-0.0169808,VALID,19.6085,VALID,132,VALID,0,
2008-10-22, 01:20:00,VALID,915.681,VALID,0,VALID,100,VALID,-0.0339617,VALID,19.6122,VALID,137,VALID,0,
2008-10-22, 01:21:00,VALID,915.637,VALID,0,VALID,100,VALID,-0.0509425,VALID,19.6087,VALID,141,VALID,0,
2008-10-22, 01:22:00,VALID,915.616,VALID,0,VALID,100,VALID,-0.0339617,VALID,19.6379,VALID,141,VALID,0,
2008-10-22, 01:23:00,VALID,915.603,VALID,0,VALID,100,VALID,0,VALID,19.6506,VALID,152,VALID,0,
2008-10-22, 01:24:00,VALID,915.578,VALID,0,VALID,100,VALID,-0.0169808,VALID,19.6539,VALID,169,VALID,0,
2008-10-22, 01:25:00,VALID,915.563,VALID,0,VALID,100,VALID,-0.0339617,VALID,19.6671,VALID,146,VALID,0,
2008-10-22, 01:26:00,VALID,915.545,VALID,0,VALID,100,VALID,-0.0169808,VALID,19.6801,VALID,143,VALID,0,
2008-10-22, 01:27:00,VALID,915.519,VALID,0,VALID,100,VALID,0,VALID,19.6863,VALID,143,VALID,0,
2008-10-22, 01:28:00,VALID,915.498,VALID,0,VALID,100,VALID,0,VALID,19.6928,VALID,143,VALID,0,
2008-10-22, 01:29:00,VALID,915.481,VALID,0,VALID,100,VALID,-0.0169808,VALID,19.6671,VALID,132,VALID,0,
2008-10-22, 01:30:00,VALID,915.478,VALID,0,VALID,100,VALID,0,VALID,19.6604,VALID,77,VALID,0,
2008-10-22, 01:31:00,VALID,915.474,VALID,0,VALID,100,VALID,0,VALID,19.6601,VALID,77,VALID,0,
2008-10-22, 01:32:00,VALID,915.49,VALID,0,VALID,100,VALID,0,VALID,19.6536,VALID,77,VALID,0,
2008-10-22, 01:33:00,VALID,915.484,VALID,0,VALID,100,VALID,-0.0169808,VALID,19.6541,VALID,77,VALID,0,
2008-10-22, 01:34:00,VALID,915.493,VALID,0,VALID,100,VALID,-0.0169808,VALID,19.6377,VALID,77,VALID,0,
2008-10-22, 01:35:00,VALID,915.495,VALID,0,VALID,100,VALID,-0.0169808,VALID,19.6379,VALID,77,VALID,0,
2008-10-22, 01:36:00,VALID,915.498,VALID,0,VALID,100,VALID,-0.0169808,VALID,19.6344,VALID,77,VALID,0,
2008-10-22, 01:37:00,VALID,915.501,VALID,0,VALID,100,VALID,-0.0169808,VALID,19.6474,VALID,77,VALID,0,
2008-10-22, 01:38:00,VALID,915.505,VALID,0,VALID,100,VALID,0,VALID,19.6506,VALID,77,VALID,0,
2008-10-22, 01:39:00,VALID,915.505,VALID,0,VALID,100,VALID,0,VALID,19.6666,VALID,77,VALID,0,
2008-10-22, 01:40:00,VALID,915.493,VALID,0,VALID,100,VALID,-0.0169808,VALID,19.6606,VALID,77,VALID,0,
2008-10-22, 01:41:00,VALID,915.514,VALID,0,VALID,100,VALID,-0.0169808,VALID,19.6828,VALID,77,VALID,0,
2008-10-22, 01:42:00,VALID,915.499,VALID,0,VALID,100,VALID,0.0169808,VALID,19.6798,VALID,77,VALID,0,
2008-10-22, 01:43:00,VALID,915.497,VALID,0,VALID,100,VALID,0,VALID,19.6566,VALID,77,VALID,0,
2008-10-22, 01:44:00,VALID,915.5,VALID,0,VALID,100,VALID,0,VALID,19.6534,VALID,77,VALID,0,
2008-10-22, 01:45:00,VALID,915.485,VALID,0,VALID,100,VALID,-0.0169808,VALID,19.6569,VALID,77,VALID,0,
2008-10-22, 01:46:00,VALID,915.478,VALID,0,VALID,100,VALID,-0.0339617,VALID,19.6469,VALID,77,VALID,0,
2008-10-22, 01:47:00,VALID,915.484,VALID,0,VALID,100,VALID,-0.0339617,VALID,19.6444,VALID,77,VALID,0,
2008-10-22, 01:48:00,VALID,915.494,VALID,0,VALID,100,VALID,0,VALID,19.6409,VALID,77,VALID,0,
2008-10-22, 01:49:00,VALID,915.491,VALID,0,VALID,100,VALID,-0.0339617,VALID,19.6506,VALID,77,VALID,0,
2008-10-22, 01:50:00,VALID,915.495,VALID,0,VALID,100,VALID,-0.0339617,VALID,19.6604,VALID,77,VALID,0,
2008-10-22, 01:51:00,VALID,915.495,VALID,0,VALID,100,VALID,-0.0509425,VALID,19.6639,VALID,77,VALID,0,
2008-10-22, 01:52:00,VALID,915.488,VALID,0,VALID,100,VALID,-0.0169808,VALID,19.6833,VALID,78,VALID,0,
2008-10-22, 01:53:00,VALID,915.487,VALID,0,VALID,100,VALID,0,VALID,19.6796,VALID,78,VALID,0,
2008-10-22, 01:54:00,VALID,915.49,VALID,0,VALID,100,VALID,-0.0169808,VALID,19.6958,VALID,78,VALID,0,
2008-10-22, 01:55:00,VALID,915.495,VALID,0,VALID,100,VALID,-0.0339617,VALID,19.6763,VALID,79,VALID,0,
2008-10-22, 01:56:00,VALID,915.491,VALID,0,VALID,100,VALID,-0.0339617,VALID,19.6701,VALID,124,VALID,0,
2008-10-22, 01:57:00,VALID,915.495,VALID,0,VALID,100,VALID,0,VALID,19.6636,VALID,146,VALID,0,
2008-10-22, 01:58:00,VALID,915.495,VALID,0,VALID,100,VALID,0,VALID,19.6536,VALID,145,VALID,0.00898437,
2008-10-22, 01:59:00,VALID,915.482,VALID,0,VALID,100,VALID,0,VALID,19.6536,VALID,163,VALID,0.0102307,
2008-10-22, 02:00:00,VALID,915.451,VALID,0,VALID,100,VALID,0,VALID,19.6634,VALID,161,VALID,0,
2008-10-22, 02:01:00,VALID,915.448,VALID,0,VALID,100,VALID,-0.0169808,VALID,19.6531,VALID,174,VALID,0.212109,
2008-10-22, 02:02:00,VALID,915.442,VALID,0,VALID,100,VALID,-0.0169808,VALID,19.6569,VALID,175,VALID,0,
2008-10-22, 02:03:00,VALID,915.443,VALID,0,VALID,100,VALID,0,VALID,19.6534,VALID,178,VALID,0.000585938,
2008-10-22, 02:04:00,VALID,915.441,VALID,0,VALID,100,VALID,-0.0339617,VALID,19.6569,VALID,167,VALID,0.000509511,
2008-10-22, 02:05:00,VALID,915.44,VALID,0,VALID,100,VALID,-0.0509425,VALID,19.6636,VALID,175,VALID,0,
2008-10-22, 02:06:00,VALID,915.432,VALID,0,VALID,100,VALID,-0.0169808,VALID,19.6636,VALID,179,VALID,0,
2008-10-22, 02:07:00,VALID,915.415,VALID,0,VALID,100,VALID,-0.0169808,VALID,19.6469,VALID,170,VALID,0,
2008-10-22, 02:08:00,VALID,915.387,VALID,0,VALID,100,VALID,0,VALID,19.6534,VALID,169,VALID,0,
2008-10-22, 02:09:00,VALID,915.381,VALID,0,VALID,100,VALID,0,VALID,19.6569,VALID,171,VALID,0,
2008-10-22, 02:10:00,VALID,915.351,VALID,0,VALID,100,VALID,-0.0169808,VALID,19.6574,VALID,168,VALID,0,
2008-10-22, 02:11:00,VALID,915.331,VALID,0,VALID,100,VALID,0,VALID,19.6569,VALID,164,VALID,0,
2008-10-22, 02:12:00,VALID,915.328,VALID,0,VALID,100,VALID,-0.0169808,VALID,19.6569,VALID,151,VALID,0,
2008-10-22, 02:13:00,VALID,915.323,VALID,0,VALID,100,VALID,-0.0169808,VALID,19.6441,VALID,140,VALID,0,
2008-10-22, 02:14:00,VALID,915.335,VALID,0,VALID,100,VALID,-0.0169808,VALID,19.6342,VALID,124,VALID,0,
2008-10-22, 02:15:00,VALID,915.319,VALID,0,VALID,100,VALID,-0.0679233,VALID,19.6344,VALID,123,VALID,0,
2008-10-22, 02:16:00,VALID,915.306,VALID,0,VALID,100,VALID,-0.0679233,VALID,19.6312,VALID,123,VALID,0,
2008-10-22, 02:17:00,VALID,915.295,VALID,0,VALID,100,VALID,-0.0679233,VALID,19.6214,VALID,122,VALID,0,
2008-10-22, 02:18:00,VALID,915.271,VALID,0,VALID,100,VALID,-0.0679233,VALID,19.6247,VALID,122,VALID,0,
2008-10-22, 02:19:00,VALID,915.266,VALID,0,VALID,100,VALID,-0.0509425,VALID,19.6441,VALID,122,VALID,0,
2008-10-22, 02:20:00,VALID,915.244,VALID,0,VALID,100,VALID,-0.0169808,VALID,19.6272,VALID,122,VALID,0,
2008-10-22, 02:21:00,VALID,915.241,VALID,0,VALID,100,VALID,-0.0509425,VALID,19.6372,VALID,122,VALID,0,
2008-10-22, 02:22:00,VALID,915.223,VALID,0,VALID,100,VALID,0,VALID,19.6337,VALID,131,VALID,0,
2008-10-22, 02:23:00,VALID,915.204,VALID,0,VALID,100,VALID,0,VALID,19.6407,VALID,133,VALID,0,
2008-10-22, 02:24:00,VALID,915.183,VALID,0,VALID,100,VALID,-0.0169808,VALID,19.6506,VALID,134,VALID,0,
2008-10-22, 02:25:00,VALID,915.148,VALID,0,VALID,100,VALID,-0.0509425,VALID,19.6471,VALID,151,VALID,0,
2008-10-22, 02:26:00,VALID,915.124,VALID,0,VALID,100,VALID,-0.0509425,VALID,19.6441,VALID,146,VALID,0,
2008-10-22, 02:27:00,VALID,915.101,VALID,0,VALID,100,VALID,-0.0169808,VALID,19.6437,VALID,143,VALID,0,
2008-10-22, 02:28:00,VALID,915.079,VALID,0,VALID,100,VALID,-0.0169808,VALID,19.6342,VALID,149,VALID,0,
2008-10-22, 02:29:00,VALID,915.068,VALID,0,VALID,100,VALID,0,VALID,19.6374,VALID,154,VALID,0,
2008-10-22, 02:30:00,VALID,915.056,VALID,0,VALID,100,VALID,-0.0169808,VALID,19.6247,VALID,152,VALID,0,
2008-10-22, 02:31:00,VALID,915.046,VALID,0,VALID,100,VALID,-0.0509425,VALID,19.6342,VALID,151,VALID,0,
2008-10-22, 02:32:00,VALID,915.033,VALID,0,VALID,100,VALID,-0.0339617,VALID,19.6279,VALID,156,VALID,0,
2008-10-22, 02:33:00,VALID,915.022,VALID,0,VALID,100,VALID,-0.0169808,VALID,19.6344,VALID,158,VALID,0,
2008-10-22, 02:34:00,VALID,915.018,VALID,0,VALID,100,VALID,-0.0169808,VALID,19.6309,VALID,158,VALID,0,
2008-10-22, 02:35:00,VALID,915.013,VALID,0,VALID,100,VALID,-0.0509425,VALID,19.6372,VALID,172,VALID,0,
2008-10-22, 02:36:00,VALID,915.006,VALID,0,VALID,100,VALID,-0.0169808,VALID,19.6309,VALID,170,VALID,0,
2008-10-22, 02:37:00,VALID,914.982,VALID,0,VALID,100,VALID,0,VALID,19.6374,VALID,171,VALID,0,
2008-10-22, 02:38:00,VALID,914.976,VALID,0,VALID,100,VALID,-0.0339617,VALID,19.6339,VALID,176,VALID,0,
2008-10-22, 02:39:00,VALID,914.975,VALID,0,VALID,100,VALID,-0.0339617,VALID,19.6339,VALID,176,VALID,0.10556,
2008-10-22, 02:40:00,VALID,914.966,VALID,0,VALID,100,VALID,-0.0169808,VALID,19.6407,VALID,176,VALID,0.0288318,
2008-10-22, 02:41:00,VALID,914.966,VALID,0,VALID,100,VALID,-0.0339617,VALID,19.6304,VALID,173,VALID,0,
2008-10-22, 02:42:00,VALID,914.961,VALID,0,VALID,100,VALID,-0.0339617,VALID,19.6377,VALID,179,VALID,0.00120192,
2008-10-22, 02:43:00,VALID,914.953,VALID,0,VALID,100,VALID,-0.0509425,VALID,19.6309,VALID,191,VALID,0.0025436,
2008-10-22, 02:44:00,VALID,914.951,VALID,0,VALID,100,VALID,-0.0509425,VALID,19.6212,VALID,191,VALID,0.00260417,
2008-10-22, 02:45:00,VALID,914.963,VALID,0,VALID,100,VALID,-0.0339617,VALID,19.6279,VALID,184,VALID,0.102628,
2008-10-22, 02:46:00,VALID,914.959,VALID,0,VALID,100,VALID,-0.0339617,VALID,19.6247,VALID,182,VALID,0.0807292,
2008-10-22, 02:47:00,VALID,914.964,VALID,0,VALID,100,VALID,-0.0339617,VALID,19.6149,VALID,183,VALID,0,
2008-10-22, 02:48:00,VALID,914.963,VALID,0,VALID,100,VALID,-0.0509425,VALID,19.6045,VALID,184,VALID,0,
2008-10-22, 02:49:00,VALID,914.973,VALID,0,VALID,100,VALID,-0.0169808,VALID,19.6045,VALID,171,VALID,0,
2008-10-22, 02:50:00,VALID,914.973,VALID,0,VALID,100,VALID,0.0849042,VALID,19.607,VALID,171,VALID,0,
2008-10-22, 02:51:00,VALID,914.967,VALID,0,VALID,100,VALID,0.0339617,VALID,19.607,VALID,188,VALID,0,
2008-10-22, 02:52:00,VALID,914.967,VALID,0,VALID,100,VALID,0.0509425,VALID,19.5905,VALID,192,VALID,0,
2008-10-22, 02:53:00,VALID,914.986,VALID,0,VALID,100,VALID,0.0169808,VALID,19.5972,VALID,181,VALID,0,
2008-10-22, 02:54:00,VALID,914.989,VALID,0,VALID,100,VALID,0.0509425,VALID,19.5972,VALID,181,VALID,0,
2008-10-22, 02:55:00,VALID,914.996,VALID,0,VALID,100,VALID,0.0169808,VALID,19.6037,VALID,181,VALID,0,
2008-10-22, 02:56:00,VALID,915.022,VALID,0,VALID,100,VALID,0.0509425,VALID,19.5967,VALID,181,VALID,0,
2008-10-22, 02:57:00,VALID,915.029,VALID,0,VALID,100,VALID,0.0509425,VALID,19.6035,VALID,168,VALID,0,
2008-10-22, 02:58:00,VALID,915.034,VALID,0,VALID,100,VALID,0.0679233,VALID,19.6097,VALID,166,VALID,0.114169,
2008-10-22, 02:59:00,VALID,915.044,VALID,0,VALID,100,VALID,0.0849042,VALID,19.6199,VALID,176,VALID,0,
2008-10-22, 03:00:00,VALID,915.051,VALID,0,VALID,100,VALID,0.0679233,VALID,19.6297,VALID,167,VALID,0,
2008-10-22, 03:01:00,VALID,915.049,VALID,0,VALID,100,VALID,0.0679233,VALID,19.6262,VALID,181,VALID,0,
2008-10-22, 03:02:00,VALID,915.052,VALID,0,VALID,100,VALID,0.0169808,VALID,19.6362,VALID,189,VALID,0,
2008-10-22, 03:03:00,VALID,915.053,VALID,0,VALID,100,VALID,0.0679233,VALID,19.6362,VALID,188,VALID,0,
2008-10-22, 03:04:00,VALID,915.075,VALID,0,VALID,100,VALID,0.0339617,VALID,19.6434,VALID,184,VALID,0.316778,
2008-10-22, 03:05:00,VALID,915.086,VALID,0,VALID,100,VALID,-0.0849042,VALID,19.6444,VALID,180,VALID,0.109375,
2008-10-22, 03:06:00,VALID,915.094,VALID,0,VALID,100,VALID,-0.0339617,VALID,19.6377,VALID,165,VALID,0,
2008-10-22, 03:07:00,VALID,915.097,VALID,0,VALID,100,VALID,-0.0679233,VALID,19.6541,VALID,162,VALID,0,
2008-10-22, 03:08:00,VALID,915.127,VALID,0,VALID,100,VALID,-0.101885,VALID,19.6708,VALID,153,VALID,0,
2008-10-22, 03:09:00,VALID,915.133,VALID,0,VALID,100,VALID,-0.0849042,VALID,19.6641,VALID,137,VALID,0,
2008-10-22, 03:10:00,VALID,915.137,VALID,0,VALID,100,VALID,-0.101885,VALID,19.6641,VALID,109,VALID,0,
2008-10-22, 03:11:00,VALID,915.148,VALID,0,VALID,100,VALID,-0.0509425,VALID,19.6636,VALID,113,VALID,0,
2008-10-22, 03:12:00,VALID,915.144,VALID,0,VALID,100,VALID,-0.101885,VALID,19.6544,VALID,128,VALID,0,
2008-10-22, 03:13:00,VALID,915.138,VALID,0,VALID,100,VALID,-0.0679233,VALID,19.6409,VALID,128,VALID,0,
2008-10-22, 03:14:00,VALID,915.122,VALID,0,VALID,100,VALID,-0.0679233,VALID,19.6479,VALID,103,VALID,0,
2008-10-22, 03:15:00,VALID,915.114,VALID,0,VALID,100,VALID,-0.0509425,VALID,19.6476,VALID,86,VALID,0,
2008-10-22, 03:16:00,VALID,915.107,VALID,0,VALID,100,VALID,-0.0509425,VALID,19.6544,VALID,94,VALID,0,
2008-10-22, 03:17:00,VALID,915.099,VALID,0,VALID,100,VALID,-0.0339617,VALID,19.6412,VALID,109,VALID,0,
2008-10-22, 03:18:00,VALID,915.09,VALID,0,VALID,100,VALID,-0.0679233,VALID,19.6416,VALID,103,VALID,0.192773,
2008-10-22, 03:19:00,VALID,915.08,VALID,0,VALID,100,VALID,-0.0339617,VALID,19.6242,VALID,104,VALID,0.628634,
2008-10-22, 03:20:00,VALID,915.077,VALID,0,VALID,100,VALID,0.0509425,VALID,19.6264,VALID,95,VALID,0.706352,
2008-10-22, 03:21:00,VALID,915.077,VALID,0,VALID,100,VALID,0.0339617,VALID,19.6202,VALID,96,VALID,0.0440972,
2008-10-22, 03:22:00,VALID,915.081,VALID,0,VALID,100,VALID,0.0679233,VALID,19.6199,VALID,107,VALID,0.00130208,
2008-10-22, 03:23:00,VALID,915.071,VALID,0,VALID,100,VALID,0.0509425,VALID,19.6167,VALID,107,VALID,0,
2008-10-22, 03:24:00,VALID,915.078,VALID,0,VALID,100,VALID,0.0849042,VALID,19.6197,VALID,108,VALID,0,
2008-10-22, 03:25:00,VALID,915.056,VALID,0,VALID,100,VALID,0.0679233,VALID,19.6232,VALID,118,VALID,0,
2008-10-22, 03:26:00,VALID,915.042,VALID,0,VALID,100,VALID,0.101885,VALID,19.6264,VALID,123,VALID,0,
2008-10-22, 03:27:00,VALID,915.019,VALID,0,VALID,100,VALID,0.0849042,VALID,19.6362,VALID,146,VALID,0.299867,
2008-10-22, 03:28:00,VALID,914.992,VALID,0,VALID,100,VALID,0.0849042,VALID,19.6364,VALID,171,VALID,0.379002,
2008-10-22, 03:29:00,VALID,914.983,VALID,0,VALID,100,VALID,0.0339617,VALID,19.6526,VALID,150,VALID,0,
2008-10-22, 03:30:00,VALID,914.969,VALID,0,VALID,100,VALID,0.0509425,VALID,19.6654,VALID,170,VALID,0.139137,
2008-10-22, 03:31:00,VALID,914.982,VALID,0,VALID,100,VALID,0.0509425,VALID,19.6816,VALID,177,VALID,0.259487,
2008-10-22, 03:32:00,VALID,914.973,VALID,0,VALID,100,VALID,0.0679233,VALID,19.6881,VALID,177,VALID,0.000952744,
2008-10-22, 03:33:00,VALID,914.975,VALID,0,VALID,100,VALID,0.0509425,VALID,19.6946,VALID,177,VALID,0,
2008-10-22, 03:34:00,VALID,914.984,VALID,0,VALID,100,VALID,0.0509425,VALID,19.7118,VALID,177,VALID,0,
2008-10-22, 03:35:00,VALID,914.97,VALID,0,VALID,100,VALID,-0.0509425,VALID,19.7123,VALID,177,VALID,0,
2008-10-22, 03:36:00,VALID,914.965,VALID,0,VALID,100,VALID,-0.0679233,VALID,19.7188,VALID,177,VALID,0,
2008-10-22, 03:37:00,VALID,914.945,VALID,0,VALID,100,VALID,-0.0679233,VALID,19.7025,VALID,177,VALID,0,
2008-10-22, 03:38:00,VALID,914.946,VALID,0,VALID,100,VALID,-0.0679233,VALID,19.7155,VALID,177,VALID,0,
2008-10-22, 03:39:00,VALID,914.939,VALID,0,VALID,100,VALID,-0.0679233,VALID,19.7255,VALID,177,VALID,0,
2008-10-22, 03:40:00,VALID,914.928,VALID,0,VALID,100,VALID,-0.0509425,VALID,19.722,VALID,172,VALID,0.0333807,
2008-10-22, 03:41:00,VALID,914.941,VALID,0,VALID,100,VALID,-0.0679233,VALID,19.7188,VALID,126,VALID,0.343928,
2008-10-22, 03:42:00,VALID,914.956,VALID,0,VALID,100,VALID,-0.0339617,VALID,19.709,VALID,101,VALID,0.333651,
2008-10-22, 03:43:00,VALID,914.959,VALID,0,VALID,100,VALID,-0.0679233,VALID,19.6963,VALID,93,VALID,0,
2008-10-22, 03:44:00,VALID,914.956,VALID,0,VALID,100,VALID,-0.0339617,VALID,19.6896,VALID,91,VALID,0.0427827,
2008-10-22, 03:45:00,VALID,914.942,VALID,0,VALID,100,VALID,-0.0339617,VALID,19.6898,VALID,94,VALID,0,
2008-10-22, 03:46:00,VALID,914.94,VALID,0,VALID,100,VALID,-0.0509425,VALID,19.6831,VALID,96,VALID,0.0565476,
2008-10-22, 03:47:00,VALID,914.916,VALID,0,VALID,100,VALID,-0.0679233,VALID,19.6866,VALID,98,VALID,0.890262,
2008-10-22, 03:48:00,VALID,914.91,VALID,0,VALID,100,VALID,-0.0679233,VALID,19.6768,VALID,103,VALID,0.0459666,
2008-10-22, 03:49:00,VALID,914.918,VALID,0,VALID,100,VALID,-0.0339617,VALID,19.6833,VALID,123,VALID,0.819568,
2008-10-22, 03:50:00,VALID,914.913,VALID,0,VALID,100,VALID,-0.0679233,VALID,19.6669,VALID,132,VALID,0.283918,